#timestamp,LO_Frequency,Hit,StdDev 
1511200815.0,286047000.8,N
1511200816.0,286047000.8,N
1511200835.8,286047000.4,N
1511200855.6,286046999.3,N
1511200875.4,286046999.7,N
1511200895.3,286046996.7,N
1511200915.1,286046999.6,N
1511200935.8,286046997.8,N
1511200955.7,286047002.7,N
1511200975.5,286047002.3,N
1511200995.3,286047001.8,N
1511201015.2,286047000.8,N
1511201035.9,286046994.5,N
1511201055.7,286046990.7,N
1511201075.6,286046988.9,N
1511201095.4,286046987.1,Y
1511201115.2,286046989.3,P
1511201135.1,286046992.9,N
1511201136.0,286046992.9,N
1511201155.8,286046991.1,Y
1511201175.6,286046996.7,P
1511201195.5,286046996.3,N
1511201215.3,286046994.1,P
1511201235.2,286046990.9,Y
1511201255.9,286046993.2,P
1511201275.7,286046991.6,P
1511201295.6,286046985.3,P
1511201315.4,286046985.5,Y
1511201335.2,286047002.8,P
1511201355.1,286047004.7,N
1511201356.0,286047004.7,N
1511201375.8,286047007.0,N
1511201395.6,286047007.7,N
1511201415.4,286047009.2,N
1511201435.3,286047007.8,N
1511201455.1,286047013.6,N
1511201475.8,286047015.8,N
1511201495.7,286047015.3,N
1511201515.5,286047014.4,N
1511201535.3,286047012.8,N
1511201555.2,286047011.0,N
1511201575.9,286047019.4,Y
1511201595.7,286047007.8,P
1511201615.6,286047008.3,P
1511201635.4,286047009.1,P
1511201655.2,286047005.1,Y
1511201675.1,286046996.4,P
1511201676.0,286046996.4,N
1511201695.8,286046997.3,N
1511201715.6,286047001.6,N
1511201735.5,286046999.8,N
1511201755.3,286046995.3,N
1511201775.1,286046998.7,N
1511201795.9,286047002.8,N
1511201815.7,286046998.1,N
1511201835.5,286046999.2,N
1511201855.3,286046994.9,N
1511201875.2,286046997.3,N
1511201895.0,286046998.7,N
1511201895.9,286046998.7,N
1511201915.7,286046996.6,N
1511201935.6,286047004.4,N
1511201955.4,286046999.7,N
1511201975.2,286047002.6,N
1511201995.1,286047004.4,N
1511201996.0,286047004.4,N
1511202015.8,286047006.7,N
1511202035.6,286047001.9,N
1511202055.5,286046997.6,N
1511202075.3,286047001.4,N
1511202095.1,286047002.2,N
1511202115.9,286046997.1,N
1511202135.7,286046999.2,N
1511202155.5,286047005.9,N
1511202175.3,286047007.0,N
1511202195.2,286047004.4,N
1511202215.0,286047001.8,N
1511202215.9,286047001.8,N
1511202235.7,286047000.0,N
1511202255.6,286046997.3,N
1511202275.4,286046995.8,N
1511202295.2,286046994.2,N
1511202315.1,286046990.0,N
1511202316.0,286046990.0,N
1511202335.8,286046986.2,Y
1511202355.6,286046984.5,P
1511202375.5,286046986.3,N
1511202395.3,286046993.7,N
1511202415.1,286046999.3,N
1511202435.9,286047007.2,N
1511202455.7,286047006.5,N
1511202475.5,286047010.2,N
1511202495.4,286047011.5,N
1511202515.2,286047010.4,N
1511202535.0,286047006.1,N
1511202535.9,286047006.1,N
1511202555.8,286047012.3,N
1511202575.6,286047016.4,N
1511202595.4,286047012.0,N
1511202615.2,286047010.2,N
1511202635.1,286047012.2,N
1511202636.0,286047012.2,N
1511202655.8,286047011.9,N
1511202675.6,286047007.8,N
1511202695.5,286047013.7,N
1511202715.3,286047013.8,N
1511202735.1,286047006.7,N
1511202755.9,286047005.8,N
1511202775.7,286047008.8,N
1511202795.5,286047011.2,N
1511202815.4,286047016.3,N
1511202835.2,286047019.8,N
1511202855.0,286047023.0,N
1511202855.9,286047023.0,N
1511202875.8,286047027.4,Y
1511202895.6,286047017.9,P
1511202915.4,286047016.8,P
1511202935.3,286047013.5,P
1511202955.1,286047009.6,N
1511202956.0,286047009.6,N
1511202975.8,286047009.9,N
1511202995.7,286047019.0,Y
1511203015.5,286047008.7,P
1511203035.3,286047002.1,N
1511203055.1,286047007.1,N
1511203075.9,286047008.3,N
1511203095.7,286047012.5,Y
1511203115.5,286047005.1,P
1511203135.4,286047001.9,N
1511203155.2,286047007.2,P
1511203175.0,286047005.6,N
1511203175.9,286047005.6,N
1511203195.8,286047003.5,N
1511203215.6,286047011.6,Y
1511203235.4,286046999.7,P
1511203255.3,286047003.7,N
1511203275.1,286047006.7,N
1511203295.8,286047002.5,N
1511203315.7,286046998.8,N
1511203335.5,286046996.8,N
1511203355.3,286046994.4,N
1511203375.2,286047001.2,N
1511203395.9,286046997.6,N
1511203415.7,286046994.5,N
1511203435.6,286046992.0,N
1511203455.4,286046990.3,N
1511203475.2,286046991.5,N
1511203495.0,286046990.2,N
1511203495.9,286046990.2,N
1511203515.8,286046996.4,N
1511203535.6,286046995.7,N
1511203555.4,286046996.0,N
1511203575.3,286046994.1,N
1511203595.1,286046988.6,N
1511203615.8,286046992.9,N
1511203635.7,286046995.3,N
1511203655.5,286046990.1,N
1511203675.3,286046993.5,N
1511203695.2,286046991.3,N
1511203715.9,286046989.5,N
1511203735.7,286046992.2,N
1511203755.6,286046995.3,N
1511203775.4,286046990.4,N
1511203795.2,286046988.1,N
1511203815.1,286046985.9,Y
1511203816.0,286046985.9,P
1511203835.8,286046996.1,N
1511203855.6,286046998.0,N
1511203875.5,286046992.2,N
1511203895.3,286046989.8,N
1511203915.1,286046986.8,Y
1511203935.9,286046991.9,P
1511203955.7,286046996.4,P
1511203975.5,286046992.8,P
1511203995.4,286046992.4,Y
1511204015.2,286046997.1,P
1511204035.0,286046995.8,N
1511204035.9,286046995.8,N
1511204055.8,286046996.9,N
1511204075.6,286046997.2,N
1511204095.4,286046996.2,N
1511204115.2,286046999.6,N
1511204135.1,286046998.4,N
1511204136.0,286046998.4,N
1511204155.8,286046997.1,N
1511204175.6,286046997.4,N
1511204195.5,286046993.8,Y
1511204215.3,286046993.8,P
1511204235.1,286047003.5,N
1511204255.9,286047004.3,N
1511204275.7,286047003.6,N
1511204295.5,286047002.9,N
1511204315.4,286047000.9,N
1511204335.2,286047002.4,N
1511204355.0,286047000.2,N
1511204355.9,286047000.2,N
1511204375.8,286047001.7,N
1511204395.6,286047003.2,N
